| time (UTC) | temp C | wind direction | speed KPH | gust KPH | rain 1hr cm | rain 24hr cm | rain mn cm | humidity % | barometer mb |
| 20260503180054 | 15 | 276 | 3.2 | 11.3 | 0.00 | 0.00 | 0.00 | 72 | 1012.8 |
| 20260503174542 | 15 | 167 | 1.6 | 14.5 | 0.00 | 0.00 | 0.00 | 73 | 1012.7 |
| 20260503173104 | 15 | 280 | 6.4 | 12.9 | 0.00 | 0.00 | 0.00 | 70 | 1012.4 |
| 20260503171548 | 15 | 165 | 3.2 | 16.1 | 0.00 | 0.00 | 0.00 | 72 | 1012.4 |
| 20260503110110 | 12 | 221 | 0.0 | 6.4 | 0.00 | 0.00 | 0.00 | 80 | 1010.5 |
| 20260503100105 | 12 | 249 | 3.2 | 14.5 | 0.00 | 0.00 | 0.00 | 79 | 1010.5 |
| 20260503081545 | 12 | 179 | 1.6 | 11.3 | 0.00 | 0.00 | 0.00 | 81 | 1011.1 |
| 20260503071543 | 12 | 158 | 1.6 | 12.9 | 0.00 | 0.00 | 0.00 | 81 | 1011.3 |
| 20260503054538 | 12 | 182 | 1.6 | 11.3 | 0.00 | 0.00 | 0.00 | 80 | 1012.1 |
| 20260503053029 | 12 | 184 | 3.2 | 11.3 | 0.00 | 0.00 | 0.00 | 80 | 1012.0 |
| 20260503051529 | 12 | 209 | 1.6 | 11.3 | 0.00 | 0.00 | 0.00 | 80 | 1012.0 |
| 20260503050028 | 12 | 219 | 0.0 | 9.7 | 0.00 | 0.00 | 0.00 | 80 | 1011.9 |
| 20260503044528 | 12 | 283 | 1.6 | 12.9 | 0.00 | 0.00 | 0.00 | 80 | 1011.8 |
| 20260503043028 | 12 | 227 | 4.8 | 12.9 | 0.00 | 0.00 | 0.00 | 80 | 1011.7 |
| 20260503041527 | 12 | 203 | 1.6 | 9.7 | 0.00 | 0.00 | 0.00 | 80 | 1011.6 |
| 20260503040027 | 12 | 203 | 1.6 | 8.0 | 0.00 | 0.00 | 0.00 | 81 | 1011.5 |
| 20260503034527 | 12 | 181 | 3.2 | 12.9 | 0.00 | 0.00 | 0.00 | 80 | 1011.4 |
| 20260503033039 | 12 | 187 | 1.6 | 11.3 | 0.00 | 0.00 | 0.00 | 80 | 1011.1 |
| 20260503031524 | 12 | 229 | 3.2 | 8.0 | 0.00 | 0.00 | 0.00 | 80 | 1011.0 |
| 20260503030024 | 12 | 200 | 1.6 | 11.3 | 0.00 | 0.00 | 0.00 | 79 | 1010.8 |
| 20260503024523 | 12 | 192 | 1.6 | 12.9 | 0.00 | 0.00 | 0.00 | 78 | 1010.7 |
| 20260503023023 | 13 | 267 | 0.0 | 9.7 | 0.00 | 0.00 | 0.00 | 76 | 1010.6 |
| 20260503021526 | 13 | 193 | 1.6 | 9.7 | 0.00 | 0.00 | 0.00 | 76 | 1010.6 |
| 20260503020021 | 13 | 315 | 1.6 | 14.5 | 0.00 | 0.00 | 0.00 | 73 | 1010.6 |
| 20260503014533 | 13 | 350 | 3.2 | 12.9 | 0.00 | 0.00 | 0.00 | 72 | 1010.7 |
| 20260503013021 | 14 | 236 | 4.8 | 14.5 | 0.00 | 0.00 | 0.00 | 71 | 1010.8 |
| 20260503011518 | 15 | 211 | 3.2 | 12.9 | 0.00 | 0.00 | 0.00 | 70 | 1010.7 |
| 20260503010018 | 15 | 167 | 3.2 | 11.3 | 0.00 | 0.00 | 0.00 | 68 | 1010.7 |
| 20260503004525 | 16 | 159 | 1.6 | 11.3 | 0.00 | 0.00 | 0.00 | 67 | 1010.8 |
| 20260503003017 | 16 | 164 | 4.8 | 12.9 | 0.00 | 0.00 | 0.00 | 65 | 1010.7 |
| 20260503001516 | 17 | 160 | 4.8 | 16.1 | 0.00 | 0.00 | 0.00 | 64 | 1010.8 |
| 20260503000015 | 17 | 218 | 4.8 | 20.9 | 0.00 | 0.00 | 0.00 | 64 | 1010.8 |
| 20260502234515 | 17 | 242 | 4.8 | 12.9 | 0.00 | 0.00 | 0.00 | 61 | 1010.9 |
| 20260502233013 | 17 | 317 | 4.8 | 16.1 | 0.00 | 0.00 | 0.00 | 62 | 1011.1 |
| 20260502231515 | 17 | 269 | 3.2 | 17.7 | 0.00 | 0.00 | 0.00 | 62 | 1011.2 |
| 20260502230012 | 17 | 216 | 3.2 | 16.1 | 0.00 | 0.00 | 0.00 | 63 | 1011.4 |
| 20260502224508 | 18 | 183 | 8.0 | 22.5 | 0.00 | 0.00 | 0.00 | 60 | 1011.6 |
| 20260502223006 | 17 | 212 | 6.4 | 20.9 | 0.00 | 0.00 | 0.00 | 62 | 1011.9 |
| 20260502221504 | 17 | 207 | 11.3 | 22.5 | 0.00 | 0.00 | 0.00 | 62 | 1012.0 |
| 20260502220005 | 17 | 228 | 9.7 | 22.5 | 0.00 | 0.00 | 0.00 | 62 | 1012.2 |
| 20260502214603 | 17 | 224 | 6.4 | 30.6 | 0.00 | 0.00 | 0.00 | 63 | 1012.3 |
| 20260502213001 | 17 | 162 | 6.4 | 17.7 | 0.00 | 0.00 | 0.00 | 64 | 1012.4 |
| 20260502211636 | 16 | 307 | 8.0 | 24.1 | 0.00 | 0.00 | 0.00 | 68 | 1012.5 |
| 20260502210109 | 16 | 235 | 4.8 | 14.5 | 0.00 | 0.00 | 0.00 | 68 | 1012.8 |
| 20260502204556 | 17 | 204 | 3.2 | 16.1 | 0.00 | 0.00 | 0.00 | 68 | 1012.9 |
| 20260502203101 | 16 | 214 | 3.2 | 19.3 | 0.00 | 0.00 | 0.00 | 69 | 1013.1 |
| 20260502201557 | 16 | 183 | 4.8 | 20.9 | 0.00 | 0.00 | 0.00 | 72 | 1013.2 |
| 20260502200048 | 15 | 162 | 6.4 | 17.7 | 0.00 | 0.00 | 0.00 | 73 | 1013.4 |
| 20260502194554 | 15 | 119 | 4.8 | 17.7 | 0.00 | 0.00 | 0.00 | 76 | 1013.4 |
| 20260502193043 | 15 | 248 | 6.4 | 20.9 | 0.00 | 0.00 | 0.00 | 76 | 1013.5 |
| 20260502191543 | 15 | 158 | 4.8 | 16.1 | 0.00 | 0.00 | 0.00 | 77 | 1013.5 |
| 20260502190041 | 14 | 174 | 6.4 | 17.7 | 0.00 | 0.00 | 0.00 | 79 | 1013.5 |
| 20260502184549 | 13 | 221 | 3.2 | 17.7 | 0.00 | 0.00 | 0.00 | 80 | 1013.5 |
| 20260502183050 | 13 | 226 | 4.8 | 17.7 | 0.00 | 0.00 | 0.00 | 79 | 1013.5 |
| 20260502181541 | 14 | 200 | 4.8 | 16.1 | 0.00 | 0.00 | 0.00 | 80 | 1013.4 |